This is the latest recevied weather packets stored in our database for station/object EA7AIS-10. If no packets are shown the sender has not sent any weather packets the latest 10 day(s).
| Time | Temp. | Humidity | Pressure | Rain* | Wind** | Luminosity | Snow |
|---|---|---|---|---|---|---|---|
| 1778112111 | 15° C | 61% | 1007.7 hPa | - | - | - | - |
| 1778111210 | 15° C | 63% | 1007.8 hPa | - | - | - | - |
| 1778110310 | 15.56° C | 59% | 1007.8 hPa | - | - | - | - |
| 1778109410 | 15.56° C | 59% | 1008.1 hPa | - | - | - | - |
| 1778108510 | 16.11° C | 65% | 1008.1 hPa | - | - | - | - |
| 1778107610 | 16.11° C | 57% | 1008.1 hPa | - | - | - | - |
| 1778106710 | 16.11° C | 60% | 1007.9 hPa | - | - | - | - |
| 1778105810 | 16.11° C | 59% | 1007.8 hPa | - | - | - | - |
| 1778104910 | 16.67° C | 63% | 1007.8 hPa | - | - | - | - |
| 1778104010 | 17.22° C | 62% | 1007.9 hPa | - | - | - | - |
| 1778103110 | 17.22° C | 59% | 1007.8 hPa | - | - | - | - |
| 1778102209 | 17.22° C | 59% | 1007.7 hPa | - | - | - | - |
| 1778101310 | 17.78° C | 55% | 1007.5 hPa | - | - | - | - |
| 1778100409 | 17.78° C | 57% | 1007.3 hPa | - | - | - | - |
| 1778099509 | 17.78° C | 56% | 1007.1 hPa | - | - | - | - |
| 1778098609 | 18.33° C | 53% | 1006.9 hPa | - | - | - | - |
| 1778097710 | 18.33° C | 47% | 1006.8 hPa | - | - | - | - |
| 1778096809 | 18.33° C | 44% | 1006.5 hPa | - | - | - | - |
| 1778095909 | 18.89° C | 43% | 1006.3 hPa | - | - | - | - |
| 1778095009 | 19.44° C | 43% | 1006.3 hPa | - | - | - | - |
| 1778094109 | 20° C | 43% | 1006.2 hPa | - | - | - | - |
| 1778093209 | 20.56° C | 41% | 1006 hPa | - | - | - | - |
| 1778092309 | 21.11° C | 37% | 1005.9 hPa | - | - | - | - |
| 1778091409 | 21.11° C | 37% | 1005.9 hPa | - | - | - | - |
| 1778090509 | 21.67° C | 35% | 1005.8 hPa | - | - | - | - |
* Rain since midnight (hover to see other rain measurements)
** Current wind speed in m/s (hover to see current wind gust speed)